FW6434 Weather Reports


Display with metric or nautical units.
time (UTC)temp
F
wind
direction
speed
MPH
gust
MPH
rain 1hr
in
rain 24hr
in
rain mn
in
humidity
%
barometer
mb
20260503222322 58 211 1.0 6.0 0.00 0.00 0.00 53 1015.3
20260503222305 58 199 0.0 6.0 0.00 0.00 0.00 54 1015.1
20260503222249 58 192 0.0 6.0 0.00 0.00 0.00 54 1015.3
20260503222235 58 189 0.0 6.0 0.00 0.00 0.00 55 1015.3
20260503222007 58 203 0.0 6.0 0.00 0.00 0.00 55 1015.0
20260503221952 58 203 0.0 2.0 0.00 0.00 0.00 55 1015.1
20260503221717 58 182 0.0 2.0 0.00 0.00 0.00 56 1015.4
20260503221702 58 197 0.0 2.0 0.00 0.00 0.00 56 1015.4
20260503221655 58 191 0.0 2.0 0.00 0.00 0.00 55 1015.0
20260503221417 58 196 0.0 1.0 0.00 0.00 0.00 55 1015.3
20260503220854 59 196 0.0 2.0 0.00 0.00 0.00 55 1015.1
20260503220834 59 194 0.0 2.0 0.00 0.00 0.00 55 1015.2
20260503220811 59 192 0.0 2.0 0.00 0.00 0.00 55 1015.1
20260503220755 59 192 0.0 2.0 0.00 0.00 0.00 55 1015.2
20260503220514 59 195 0.0 2.0 0.00 0.00 0.00 54 1015.2
20260503220459 59 193 0.0 3.0 0.00 0.00 0.00 54 1015.2
20260503220452 59 193 0.0 4.0 0.00 0.00 0.00 54 1015.1
20260503220129 59 193 0.0 4.0 0.00 0.00 0.00 54 1015.4
20260503220029 59 217 0.0 4.0 0.00 0.00 0.00 53 1015.4
20260503215929 59 210 1.0 4.0 0.00 0.00 0.00 53 1015.3
20260503215850 59 188 0.0 4.0 0.00 0.00 0.00 53 1015.3
20260503215830 59 192 0.0 4.0 0.00 0.00 0.00 53 1015.2
20260503215806 60 210 0.0 2.0 0.00 0.00 0.00 53 1015.4
20260503215756 60 192 0.0 4.0 0.00 0.00 0.00 53 1015.1
20260503215741 60 187 0.0 4.0 0.00 0.00 0.00 53 1015.3
20260503215725 60 187 0.0 4.0 0.00 0.00 0.00 53 1015.2
20260503215459 60 178 0.0 4.0 0.00 0.00 0.00 53 1015.2
20260503215445 60 182 0.0 3.0 0.00 0.00 0.00 53 1015.2
20260503215437 60 260 0.0 3.0 0.00 0.00 0.00 53 1015.3
20260503215418 60 167 0.0 2.0 0.00 0.00 0.00 53 1015.3
20260503215403 60 185 0.0 2.0 0.00 0.00 0.00 53 1015.0
20260503215347 60 198 0.0 2.0 0.00 0.00 0.00 53 1015.0
20260503215330 60 199 0.0 2.0 0.00 0.00 0.00 53 1015.4
20260503215104 60 198 0.0 2.0 0.00 0.00 0.00 53 1015.3
20260503215048 60 190 0.0 2.0 0.00 0.00 0.00 53 1015.2
20260503214810 60 199 0.0 4.0 0.00 0.00 0.00 53 1015.3
20260503214536 60 194 0.0 4.0 0.00 0.00 0.00 53 1015.1
20260503214223 60 194 0.0 4.0 0.00 0.00 0.00 53 1015.4
20260503214122 60 192 0.0 4.0 0.00 0.00 0.00 53 1015.4
20260503214022 60 194 0.0 4.0 0.00 0.00 0.00 53 1015.3
20260503213922 60 194 0.0 4.0 0.00 0.00 0.00 53 1015.2
20260503213822 60 191 0.0 4.0 0.00 0.00 0.00 53 1015.2
20260503213721 60 191 0.0 4.0 0.00 0.00 0.00 52 1015.2
20260503213623 61 192 0.0 4.0 0.00 0.00 0.00 52 1015.3
20260503213556 61 196 0.0 4.0 0.00 0.00 0.00 52 1015.2
20260503213540 61 184 0.0 4.0 0.00 0.00 0.00 52 1015.3
20260503213526 61 222 0.0 4.0 0.00 0.00 0.00 52 1015.3
20260503213518 61 200 0.0 4.0 0.00 0.00 0.00 52 1015.5
20260503213239 61 181 0.0 4.0 0.00 0.00 0.00 52 1015.1
20260503213223 61 213 2.0 4.0 0.00 0.00 0.00 52 1015.2
20260503213207 61 160 0.0 2.0 0.00 0.00 0.00 52 1015.4
20260503213153 61 180 0.0 2.0 0.00 0.00 0.00 52 1015.4
20260503212618 61 152 1.0 2.0 0.00 0.00 0.00 52 1015.2
20260503212515 61 188 0.0 2.0 0.00 0.00 0.00 52 1015.2
20260503212415 61 195 0.0 2.0 0.00 0.00 0.00 52 1015.2
20260503212336 61 199 0.0 2.0 0.00 0.00 0.00 52 1015.2
20260503212317 61 186 0.0 2.0 0.00 0.00 0.00 52 1015.2
20260503212215 61 181 0.0 2.0 0.00 0.00 0.00 52 1015.3
20260503212146 61 186 0.0 2.0 0.00 0.00 0.00 52 1015.3
20260503212129 61 185 0.0 2.0 0.00 0.00 0.00 52 1015.4
20260503211829 61 176 0.0 2.0 0.00 0.00 0.00 52 1015.3
20260503211809 61 230 1.0 2.0 0.00 0.00 0.00 52 1015.3
20260503211709 61 194 0.0 2.0 0.00 0.00 0.00 52 1015.2
20260503211609 61 182 0.0 1.0 0.00 0.00 0.00 52 1015.4
20260503211510 61 193 0.0 3.0 0.00 0.00 0.00 52 1015.2
20260503211456 61 198 0.0 3.0 0.00 0.00 0.00 52 1015.3
20260503211442 61 193 0.0 3.0 0.00 0.00 0.00 52 1015.3
20260503211434 61 196 0.0 3.0 0.00 0.00 0.00 52 1015.3
20260503211109 61 188 0.0 3.0 0.00 0.00 0.00 52 1015.1
20260503211010 62 188 0.0 3.0 0.00 0.00 0.00 52 1015.3
20260503210909 62 190 0.0 4.0 0.00 0.00 0.00 52 1015.3
20260503210829 62 190 0.0 4.0 0.00 0.00 0.00 53 1015.2
20260503210810 62 190 0.0 4.0 0.00 0.00 0.00 52 1015.2
20260503210710 62 193 0.0 4.0 0.00 0.00 0.00 52 1015.3
20260503210610 62 199 0.0 4.0 0.00 0.00 0.00 52 1015.3
20260503210509 62 197 0.0 4.0 0.00 0.00 0.00 52 1015.3
20260503210408 62 231 1.0 4.0 0.00 0.00 0.00 51 1015.3
20260503210325 62 212 0.0 4.0 0.00 0.00 0.00 51 1015.3
20260503210305 62 196 1.0 4.0 0.00 0.00 0.00 51 1015.3
20260503210205 62 195 0.0 4.0 0.00 0.00 0.00 51 1015.4
20260503210105 62 187 0.0 4.0 0.00 0.00 0.00 51 1015.3
20260503210006 62 245 1.0 4.0 0.00 0.00 0.00 51 1015.3
20260503205904 62 209 0.0 2.0 0.00 0.00 0.00 51 1015.4
20260503205824 62 175 0.0 2.0 0.00 0.00 0.00 51 1015.5
20260503205804 62 204 0.0 2.0 0.00 0.00 0.00 51 1015.5
20260503205704 62 187 0.0 2.0 0.00 0.00 0.00 52 1015.5
20260503205639 62 214 0.0 2.0 0.00 0.00 0.00 52 1015.2
20260503205623 62 199 0.0 2.0 0.00 0.00 0.00 52 1015.5
20260503205324 62 201 0.0 4.0 0.00 0.00 0.00 52 1015.4
20260503205304 62 201 0.0 4.0 0.00 0.00 0.00 52 1015.4
20260503205204 62 192 0.0 4.0 0.00 0.00 0.00 52 1015.3
20260503205103 62 198 0.0 4.0 0.00 0.00 0.00 52 1015.1
20260503205002 62 203 0.0 4.0 0.00 0.00 0.00 52 1015.3
20260503204918 63 192 0.0 2.0 0.00 0.00 0.00 52 1015.1
20260503204913 62 171 0.0 4.0 0.00 0.00 0.00 52 1015.4
20260503204859 62 169 0.0 4.0 0.00 0.00 0.00 52 1015.4
20260503204851 62 204 0.0 4.0 0.00 0.00 0.00 52 1015.3
20260503204835 62 209 1.0 4.0 0.00 0.00 0.00 52 1015.4
20260503204820 62 196 0.0 4.0 0.00 0.00 0.00 52 1015.4
20260503204543 63 186 0.0 2.0 0.00 0.00 0.00 52 1015.3
20260503204303 63 204 0.0 2.0 0.00 0.00 0.00 52 1015.1
20260503204237 63 201 0.0 2.0 0.00 0.00 0.00 52 1015.4
20260503204221 63 193 0.0 2.0 0.00 0.00 0.00 52 1015.4
20260503204206 63 189 0.0 4.0 0.00 0.00 0.00 52 1015.5
20260503204151 63 189 0.0 4.0 0.00 0.00 0.00 52 1015.4
20260503204136 63 184 0.0 4.0 0.00 0.00 0.00 52 1015.4
20260503203603 63 203 0.0 4.0 0.00 0.00 0.00 51 1015.4
20260503203503 63 207 1.0 4.0 0.00 0.00 0.00 52 1015.4
20260503203404 63 183 0.0 4.0 0.00 0.00 0.00 52 1015.4
20260503203323 63 201 0.0 4.0 0.00 0.00 0.00 51 1015.5
20260503203304 63 181 0.0 4.0 0.00 0.00 0.00 51 1015.5
20260503203203 63 188 0.0 4.0 0.00 0.00 0.00 51 1015.3
20260503203120 63 196 0.0 4.0 0.00 0.00 0.00 51 1015.4
20260503203115 63 213 2.0 4.0 0.00 0.00 0.00 51 1015.4
20260503203059 63 186 0.0 4.0 0.00 0.00 0.00 52 1015.5
20260503203042 63 208 0.0 4.0 0.00 0.00 0.00 51 1015.3
20260503202804 63 204 0.0 4.0 0.00 0.00 0.00 52 1015.4
20260503202703 63 184 0.0 3.0 0.00 0.00 0.00 52 1015.2
20260503202603 63 189 0.0 3.0 0.00 0.00 0.00 51 1015.3
20260503202504 63 194 0.0 3.0 0.00 0.00 0.00 52 1015.5
20260503202403 63 184 0.0 3.0 0.00 0.00 0.00 52 1015.2
20260503202323 63 188 1.0 3.0 0.00 0.00 0.00 52 1015.1
20260503202304 63 181 0.0 3.0 0.00 0.00 0.00 52 1015.1
20260503202203 64 202 0.0 3.0 0.00 0.00 0.00 52 1015.2
20260503202140 64 184 0.0 3.0 0.00 0.00 0.00 52 1015.4
20260503202123 64 205 2.0 3.0 0.00 0.00 0.00 52 1015.4
20260503201825 64 184 0.0 3.0 0.00 0.00 0.00 52 1015.3
20260503201805 64 176 0.0 3.0 0.00 0.00 0.00 52 1015.3
20260503201753 64 199 1.0 4.0 0.00 0.00 0.00 53 1015.3
20260503201749 64 210 0.0 3.0 0.00 0.00 0.00 53 1015.4
20260503201740 64 192 0.0 3.0 0.00 0.00 0.00 52 1015.4
20260503201724 64 226 1.0 3.0 0.00 0.00 0.00 53 1015.3
20260503201708 64 196 0.0 2.0 0.00 0.00 0.00 53 1015.4
20260503201652 64 199 0.0 4.0 0.00 0.00 0.00 52 1015.3
20260503201638 64 191 0.0 4.0 0.00 0.00 0.00 52 1015.2
20260503201629 64 200 0.0 4.0 0.00 0.00 0.00 52 1015.2
20260503201611 64 186 0.0 4.0 0.00 0.00 0.00 52 1015.3
20260503201335 64 196 1.0 4.0 0.00 0.00 0.00 52 1015.2
20260503201318 64 175 0.0 4.0 0.00 0.00 0.00 53 1015.3
20260503201052 64 191 0.0 4.0 0.00 0.00 0.00 53 1015.3
20260503200811 64 191 0.0 4.0 0.00 0.00 0.00 53 1015.3
20260503200755 64 195 0.0 4.0 0.00 0.00 0.00 53 1015.4
20260503200740 64 225 0.0 3.0 0.00 0.00 0.00 53 1015.3
20260503200203 64 189 0.0 3.0 0.00 0.00 0.00 53 1015.4
20260503200104 64 198 0.0 3.0 0.00 0.00 0.00 53 1015.1
20260503195959 64 188 0.0 3.0 0.00 0.00 0.00 53 1015.3
20260503195900 64 211 2.0 3.0 0.00 0.00 0.00 53 1015.2
20260503195819 64 183 0.0 3.0 0.00 0.00 0.00 53 1015.2
20260503195759 64 198 0.0 3.0 0.00 0.00 0.00 53 1015.2
20260503195700 64 199 0.0 3.0 0.00 0.00 0.00 53 1015.2
20260503195558 64 182 0.0 3.0 0.00 0.00 0.00 53 1015.2
20260503195539 64 193 0.0 3.0 0.00 0.00 0.00 52 1015.1
20260503195531 64 195 0.0 3.0 0.00 0.00 0.00 53 1015.2
20260503195516 64 196 0.0 3.0 0.00 0.00 0.00 53 1015.4
20260503195502 64 222 1.0 3.0 0.00 0.00 0.00 53 1015.3
20260503195454 64 230 1.0 3.0 0.00 0.00 0.00 53 1015.3
20260503195435 64 195 0.0 3.0 0.00 0.00 0.00 53 1015.0
20260503195419 64 213 0.0 1.0 0.00 0.00 0.00 53 1015.2
20260503195403 65 200 1.0 1.0 0.00 0.00 0.00 52 1015.1
20260503195348 65 194 0.0 2.0 0.00 0.00 0.00 52 1015.3
20260503195334 65 182 0.0 2.0 0.00 0.00 0.00 52 1015.3
20260503195105 65 217 0.0 3.0 0.00 0.00 0.00 52 1015.0
20260503195049 65 192 0.0 3.0 0.00 0.00 0.00 52 1015.2
20260503194814 65 196 0.0 3.0 0.00 0.00 0.00 52 1015.2
20260503194759 65 205 0.0 3.0 0.00 0.00 0.00 52 1015.3
20260503194530 65 187 0.0 3.0 0.00 0.00 0.00 52 1015.5
20260503194036 64 205 0.0 3.0 0.00 0.00 0.00 52 1015.0
20260503193757 64 191 0.0 3.0 0.00 0.00 0.00 53 1015.1
20260503193652 65 190 0.0 3.0 0.00 0.00 0.00 53 1015.1
20260503193551 65 188 0.0 3.0 0.00 0.00 0.00 53 1015.2
20260503193451 65 188 0.0 3.0 0.00 0.00 0.00 53 1015.1
20260503193349 65 199 0.0 3.0 0.00 0.00 0.00 53 1015.2
20260503193307 65 194 0.0 3.0 0.00 0.00 0.00 53 1015.4
20260503193247 65 194 0.0 3.0 0.00 0.00 0.00 53 1015.4
20260503193145 65 186 0.0 3.0 0.00 0.00 0.00 53 1015.0
20260503193045 65 206 0.0 3.0 0.00 0.00 0.00 53 1015.1
20260503192945 64 196 0.0 3.0 0.00 0.00 0.00 53 1015.0
20260503192843 64 195 0.0 3.0 0.00 0.00 0.00 53 1015.2
20260503192800 64 204 0.0 3.0 0.00 0.00 0.00 53 1015.0
20260503192740 64 200 0.0 3.0 0.00 0.00 0.00 53 1015.0
20260503192640 64 188 0.0 3.0 0.00 0.00 0.00 53 1015.0
20260503192540 64 192 0.0 3.0 0.00 0.00 0.00 53 1015.3
20260503192441 64 194 0.0 3.0 0.00 0.00 0.00 53 1015.2
20260503192328 64 237 1.0 3.0 0.00 0.00 0.00 53 1015.2
20260503192300 64 191 0.0 1.0 0.00 0.00 0.00 54 1015.2
20260503192228 64 192 0.0 1.0 0.00 0.00 0.00 53 1015.1
20260503192129 64 223 0.0 1.0 0.00 0.00 0.00 53 1015.1
20260503192027 64 189 0.0 1.0 0.00 0.00 0.00 54 1015.0
20260503191928 64 192 0.0 1.0 0.00 0.00 0.00 53 1015.1
20260503191823 64 196 0.0 1.0 0.00 0.00 0.00 53 1015.2
20260503191755 64 202 0.0 1.0 0.00 0.00 0.00 53 1015.2
20260503191723 64 199 0.0 1.0 0.00 0.00 0.00 53 1015.1
20260503191700 64 194 0.0 0.0 0.00 0.00 0.00 53 1014.9
20260503191645 64 198 0.0 0.0 0.00 0.00 0.00 53 1015.1
20260503191325 64 196 0.0 0.0 0.00 0.00 0.00 53 1015.2
20260503191253 64 189 0.0 0.0 0.00 0.00 0.00 53 1015.2
20260503191221 64 185 0.0 0.0 0.00 0.00 0.00 53 1015.3
20260503191121 64 192 0.0 0.0 0.00 0.00 0.00 53 1015.1
20260503191054 64 187 0.0 0.0 0.00 0.00 0.00 53 1015.3
20260503191037 64 192 0.0 1.0 0.00 0.00 0.00 53 1015.1
20260503190749 64 194 0.0 1.0 0.00 0.00 0.00 53 1015.1
20260503190716 64 194 0.0 1.0 0.00 0.00 0.00 53 1015.1
20260503190617 64 194 0.0 1.0 0.00 0.00 0.00 53 1015.1
20260503190516 65 194 0.0 1.0 0.00 0.00 0.00 53 1015.1
20260503190417 65 194 0.0 1.0 0.00 0.00 0.00 53 1015.0
20260503190316 65 194 0.0 1.0 0.00 0.00 0.00 53 1015.0
20260503190249 65 192 0.0 1.0 0.00 0.00 0.00 53 1015.0
20260503190215 65 196 0.0 1.0 0.00 0.00 0.00 53 1015.2
20260503190116 65 195 0.0 1.0 0.00 0.00 0.00 52 1015.1
20260503190052 65 196 0.0 1.0 0.00 0.00 0.00 52 1014.9
20260503190036 65 191 0.0 0.0 0.00 0.00 0.00 52 1015.2
20260503185745 65 191 0.0 0.0 0.00 0.00 0.00 52 1015.1
20260503185711 65 190 0.0 0.0 0.00 0.00 0.00 52 1015.0
20260503185611 65 191 0.0 0.0 0.00 0.00 0.00 52 1015.2
20260503185511 65 191 0.0 0.0 0.00 0.00 0.00 52 1015.0
20260503185410 65 191 0.0 0.0 0.00 0.00 0.00 52 1014.9
20260503185313 65 192 0.0 0.0 0.00 0.00 0.00 51 1015.2
20260503185236 66 192 0.0 0.0 0.00 0.00 0.00 51 1015.2
20260503185211 66 192 0.0 0.0 0.00 0.00 0.00 51 1015.0
20260503185111 66 195 0.0 0.0 0.00 0.00 0.00 51 1015.0
20260503185008 66 167 0.0 0.0 0.00 0.00 0.00 51 1015.1
20260503184940 67 188 0.0 0.0 0.00 0.00 0.00 49 1014.8
20260503184933 66 196 0.0 1.0 0.00 0.00 0.00 51 1015.0
20260503184902 66 196 0.0 1.0 0.00 0.00 0.00 51 1015.0
20260503184854 66 223 0.0 1.0 0.00 0.00 0.00 50 1015.1
20260503184836 66 194 0.0 1.0 0.00 0.00 0.00 50 1015.0
20260503184820 66 190 0.0 1.0 0.00 0.00 0.00 51 1015.1
20260503184804 66 191 0.0 1.0 0.00 0.00 0.00 50 1015.1
20260503184531 67 190 0.0 1.0 0.00 0.00 0.00 50 1015.0
20260503184300 67 190 0.0 1.0 0.00 0.00 0.00 50 1014.9
20260503184243 67 194 0.0 2.0 0.00 0.00 0.00 49 1014.9
20260503184007 67 190 0.0 2.0 0.00 0.00 0.00 49 1014.9
20260503183954 67 193 0.0 2.0 0.00 0.00 0.00 49 1014.9
20260503183724 67 190 0.0 2.0 0.00 0.00 0.00 49 1015.0
20260503183707 67 192 0.0 2.0 0.00 0.00 0.00 49 1015.0
20260503183651 67 191 0.0 2.0 0.00 0.00 0.00 49 1014.9
20260503183635 67 186 0.0 2.0 0.00 0.00 0.00 49 1014.6
20260503183621 67 186 0.0 2.0 0.00 0.00 0.00 49 1014.9
20260503183612 67 188 0.0 2.0 0.00 0.00 0.00 49 1014.9
20260503183554 67 203 0.0 1.0 0.00 0.00 0.00 49 1015.0
20260503183537 67 191 0.0 1.0 0.00 0.00 0.00 49 1015.0
20260503183522 67 192 0.0 1.0 0.00 0.00 0.00 49 1015.0
20260503183507 67 178 0.0 1.0 0.00 0.00 0.00 49 1014.8
20260503183454 67 199 0.0 1.0 0.00 0.00 0.00 49 1014.8
20260503183227 67 196 0.0 0.0 0.00 0.00 0.00 49 1014.8
20260503182951 67 191 0.0 0.0 0.00 0.00 0.00 49 1015.0
20260503181936 68 192 0.0 0.0 0.00 0.00 0.00 48 1014.8
20260503181835 68 190 0.0 0.0 0.00 0.00 0.00 48 1015.0
20260503181720 68 190 0.0 0.0 0.00 0.00 0.00 48 1014.8
20260503181635 68 188 0.0 0.0 0.00 0.00 0.00 48 1015.0
20260503181604 68 191 0.0 0.0 0.00 0.00 0.00 48 1014.8
20260503181556 68 190 0.0 0.0 0.00 0.00 0.00 48 1014.8
20260503181540 68 201 0.0 0.0 0.00 0.00 0.00 48 1014.9
20260503181524 68 187 0.0 0.0 0.00 0.00 0.00 48 1014.7
20260503181510 68 191 0.0 0.0 0.00 0.00 0.00 48 1014.8
20260503181243 68 194 0.0 0.0 0.00 0.00 0.00 48 1014.6
20260503181224 68 195 0.0 0.0 0.00 0.00 0.00 48 1014.7
20260503180950 68 188 0.0 0.0 0.00 0.00 0.00 48 1014.7
20260503180924 68 194 0.0 0.0 0.00 0.00 0.00 48 1014.6
20260503180914 68 194 0.0 0.0 0.00 0.00 0.00 47 1014.8
20260503180639 68 194 0.0 0.0 0.00 0.00 0.00 47 1014.8
20260503180623 68 193 0.0 0.0 0.00 0.00 0.00 47 1014.2
20260503180351 69 190 0.0 0.0 0.00 0.00 0.00 47 1014.9
20260503180339 69 190 0.0 0.0 0.00 0.00 0.00 47 1014.7
20260503180320 69 190 0.0 0.0 0.00 0.00 0.00 47 1014.6
20260503180305 69 190 0.0 0.0 0.00 0.00 0.00 47 1014.8
20260503180016 69 189 0.0 0.0 0.00 0.00 0.00 47 1014.6
20260503175747 69 190 0.0 0.0 0.00 0.00 0.00 47 1014.6
20260503175730 69 189 0.0 0.0 0.00 0.00 0.00 47 1014.8
20260503175714 69 189 0.0 0.0 0.00 0.00 0.00 47 1014.7
20260503175448 69 190 0.0 0.0 0.00 0.00 0.00 46 1014.7
20260503174944 70 187 0.0 2.0 0.00 0.00 0.00 46 1014.6
20260503174927 70 187 0.0 2.0 0.00 0.00 0.00 46 1014.7
20260503174657 70 187 0.0 2.0 0.00 0.00 0.00 46 1014.5
20260503174557 70 188 0.0 2.0 0.00 0.00 0.00 46 1014.7
20260503174452 70 194 0.0 2.0 0.00 0.00 0.00 46 1014.5
20260503174348 70 194 0.0 2.0 0.00 0.00 0.00 46 1014.7
20260503174247 70 203 0.0 2.0 0.00 0.00 0.00 45 1014.6
20260503174145 70 190 0.0 2.0 0.00 0.00 0.00 46 1014.5
20260503174045 71 189 0.0 2.0 0.00 0.00 0.00 45 1014.7
20260503174006 71 186 0.0 1.0 0.00 0.00 0.00 46 1014.3
20260503173950 71 205 0.0 2.0 0.00 0.00 0.00 45 1014.7
20260503173934 71 191 0.0 2.0 0.00 0.00 0.00 45 1014.3
20260503173919 71 193 0.0 2.0 0.00 0.00 0.00 45 1014.3
20260503173652 71 194 0.0 2.0 0.00 0.00 0.00 46 1014.3
20260503173421 71 192 0.0 2.0 0.00 0.00 0.00 45 1014.7
20260503173412 71 194 0.0 2.0 0.00 0.00 0.00 46 1014.6
20260503173355 71 195 0.0 2.0 0.00 0.00 0.00 45 1014.7
20260503173115 71 188 0.0 2.0 0.00 0.00 0.00 45 1014.5
20260503173018 71 192 0.0 2.0 0.00 0.00 0.00 45 1014.7
20260503172904 71 184 0.0 2.0 0.00 0.00 0.00 45 1014.6
20260503172806 71 185 0.0 2.0 0.00 0.00 0.00 45 1014.5
20260503172703 71 175 0.0 2.0 0.00 0.00 0.00 45 1014.5
20260503172636 71 182 0.0 2.0 0.00 0.00 0.00 45 1014.5
20260503172603 71 241 0.0 1.0 0.00 0.00 0.00 45 1014.6
20260503172524 73 187 0.0 7.0 0.00 0.00 0.00 44 1014.5
20260503172514 71 190 0.0 1.0 0.00 0.00 0.00 45 1014.6
20260503172445 72 190 0.0 0.0 0.00 0.00 0.00 45 1014.7
20260503172429 72 184 0.0 0.0 0.00 0.00 0.00 46 1014.5
20260503172417 72 184 0.0 0.0 0.00 0.00 0.00 46 1014.3
20260503172145 72 194 0.0 0.0 0.00 0.00 0.00 45 1014.6
20260503172129 72 186 0.0 0.0 0.00 0.00 0.00 45 1014.5
20260503171852 72 193 0.0 1.0 0.00 0.00 0.00 45 1014.5
20260503171840 72 185 0.0 1.0 0.00 0.00 0.00 44 1014.5
20260503171830 72 185 0.0 1.0 0.00 0.00 0.00 45 1014.6
20260503171814 72 185 0.0 1.0 0.00 0.00 0.00 44 1014.6
20260503171758 72 192 0.0 1.0 0.00 0.00 0.00 45 1014.6
20260503171743 72 186 0.0 1.0 0.00 0.00 0.00 45 1014.6
20260503171511 72 186 0.0 1.0 0.00 0.00 0.00 45 1014.3
20260503171459 73 183 0.0 1.0 0.00 0.00 0.00 44 1014.6
20260503171220 73 184 0.0 7.0 0.00 0.00 0.00 44 1014.6
20260503170941 73 187 0.0 7.0 0.00 0.00 0.00 44 1014.5
20260503170443 73 187 0.0 7.0 0.00 0.00 0.00 43 1014.7
20260503170427 73 194 0.0 7.0 0.00 0.00 0.00 43 1014.7
20260503170143 73 200 0.0 7.0 0.00 0.00 0.00 42 1014.7
20260503170125 73 209 4.0 7.0 0.00 0.00 0.00 42 1014.6
20260503160214 74 195 1.0 11.0 0.00 0.00 0.00 41 1014.3
20260503160114 74 218 8.0 11.0 0.00 0.00 0.00 41 1014.6
20260503150450 76 121 0.0 8.0 0.00 0.00 0.00 41 1015.0
20260503150350 76 201 1.0 8.0 0.00 0.00 0.00 41 1014.9
20260503150251 76 187 0.0 8.0 0.00 0.00 0.00 41 1015.1
20260503150210 76 207 4.0 8.0 0.00 0.00 0.00 41 1014.9
20260503150150 76 212 1.0 8.0 0.00 0.00 0.00 41 1014.9
20260503130828 75 215 3.0 19.0 0.00 0.00 0.00 40 1016.2
20260503130726 75 206 5.0 19.0 0.00 0.00 0.00 40 1016.3
20260503130707 75 261 9.0 19.0 0.00 0.00 0.00 40 1016.3
20260503130658 75 219 12.0 19.0 0.00 0.00 0.00 40 1016.3
20260503130641 75 183 9.0 19.0 0.00 0.00 0.00 40 1016.3
20260503130625 75 213 9.0 19.0 0.00 0.00 0.00 40 1016.2
20260503130349 76 151 0.0 19.0 0.00 0.00 0.00 40 1016.1
20260503130336 76 170 1.0 19.0 0.00 0.00 0.00 40 1016.1
20260503130325 76 216 3.0 19.0 0.00 0.00 0.00 39 1016.4
20260503130309 76 187 5.0 7.0 0.00 0.00 0.00 40 1016.3
20260503110814 75 216 2.0 14.0 0.00 0.00 0.00 43 1017.2
20260503110505 75 207 5.0 14.0 0.00 0.00 0.00 42 1017.1
20260503110405 75 200 0.0 14.0 0.00 0.00 0.00 42 1017.4
20260503110305 75 265 7.0 14.0 0.00 0.00 0.00 41 1017.5
20260503110250 74 251 2.0 15.0 0.00 0.00 0.00 42 1017.4
20260503110241 75 245 3.0 14.0 0.00 0.00 0.00 42 1017.1
20260503110217 75 243 4.0 14.0 0.00 0.00 0.00 42 1017.3
20260503110200 75 239 3.0 14.0 0.00 0.00 0.00 42 1017.4
20260503110144 75 309 3.0 8.0 0.00 0.00 0.00 43 1017.5
20260503110128 75 201 1.0 8.0 0.00 0.00 0.00 43 1017.3
20260503110112 74 190 0.0 8.0 0.00 0.00 0.00 44 1017.5
20260503100248 76 234 5.0 11.0 0.00 0.00 0.00 42 1018.1
20260503100146 76 216 0.0 11.0 0.00 0.00 0.00 42 1018.2
20260503100122 75 190 0.0 11.0 0.00 0.00 0.00 42 1017.9
20260503100106 75 182 0.0 11.0 0.00 0.00 0.00 43 1018.3
20260503090310 71 202 1.0 13.0 0.00 0.00 0.00 47 1018.7
20260503081425 70 232 1.0 14.0 0.00 0.00 0.00 48 1018.8
20260503081409 70 238 4.0 14.0 0.00 0.00 0.00 47 1018.7
20260503081145 69 254 1.0 14.0 0.00 0.00 0.00 48 1018.5
20260503081129 69 236 4.0 14.0 0.00 0.00 0.00 48 1018.5
20260503081113 69 233 7.0 13.0 0.00 0.00 0.00 47 1018.5
20260503080846 71 229 4.0 13.0 0.00 0.00 0.00 47 1018.9
20260503080829 72 215 5.0 13.0 0.00 0.00 0.00 46 1018.8
20260503080509 72 198 0.0 9.0 0.00 0.00 0.00 46 1018.5
20260503080409 72 155 0.0 9.0 0.00 0.00 0.00 47 1018.8
20260503080330 72 194 0.0 9.0 0.00 0.00 0.00 46 1018.5
20260503080310 72 208 4.0 9.0 0.00 0.00 0.00 46 1018.5
20260503080209 72 164 2.0 9.0 0.00 0.00 0.00 46 1018.5
20260503080109 72 210 2.0 9.0 0.00 0.00 0.00 45 1018.5
20260503072508 68 199 3.0 17.0 0.00 0.00 0.00 49 1018.7
20260503072410 68 266 6.0 17.0 0.00 0.00 0.00 48 1018.5
20260503072355 67 170 0.0 17.0 0.00 0.00 0.00 48 1018.5
20260503072345 67 247 4.0 17.0 0.00 0.00 0.00 48 1018.5
20260503072329 67 222 4.0 17.0 0.00 0.00 0.00 49 1019.0
20260503072008 67 230 1.0 10.0 0.00 0.00 0.00 48 1018.7
20260503071908 67 216 3.0 17.0 0.00 0.00 0.00 50 1018.5
20260503071828 67 223 4.0 17.0 0.00 0.00 0.00 50 1018.8
20260503071808 67 209 4.0 17.0 0.00 0.00 0.00 49 1018.8
20260503071708 68 174 1.0 17.0 0.00 0.00 0.00 50 1018.4
20260503071609 68 187 0.0 17.0 0.00 0.00 0.00 49 1018.5
20260503071510 67 214 1.0 17.0 0.00 0.00 0.00 49 1018.7
20260503071408 67 195 0.0 17.0 0.00 0.00 0.00 50 1018.4
20260503071328 67 199 2.0 17.0 0.00 0.00 0.00 50 1018.8
20260503071308 67 231 7.0 17.0 0.00 0.00 0.00 49 1018.8
20260503071209 68 216 4.0 17.0 0.00 0.00 0.00 49 1018.3
20260503071109 69 207 6.0 17.0 0.00 0.00 0.00 49 1018.5
20260503071007 69 230 7.0 17.0 0.00 0.00 0.00 48 1018.5
20260503070945 66 204 3.0 11.0 0.00 0.00 0.00 51 1018.8
20260503070937 68 204 1.0 11.0 0.00 0.00 0.00 49 1018.7
20260503070922 68 191 0.0 11.0 0.00 0.00 0.00 49 1018.5
20260503070914 68 287 1.0 11.0 0.00 0.00 0.00 50 1018.5
20260503070859 68 203 0.0 11.0 0.00 0.00 0.00 50 1018.5
20260503070843 67 204 2.0 11.0 0.00 0.00 0.00 50 1018.5
20260503070827 67 198 2.0 11.0 0.00 0.00 0.00 50 1018.4
20260503070811 67 182 0.0 11.0 0.00 0.00 0.00 51 1018.4
20260503070541 66 230 2.0 11.0 0.00 0.00 0.00 51 1018.8
20260503070524 66 232 1.0 11.0 0.00 0.00 0.00 52 1018.4
20260503070507 66 191 0.0 11.0 0.00 0.00 0.00 53 1018.7
20260503070452 66 215 2.0 9.0 0.00 0.00 0.00 52 1018.4
20260503070216 65 177 0.0 9.0 0.00 0.00 0.00 54 1018.4
20260503060328 65 233 3.0 6.0 0.00 0.00 0.00 53 1018.3
20260503060308 64 205 2.0 6.0 0.00 0.00 0.00 53 1018.3
20260503060207 64 211 0.0 6.0 0.00 0.00 0.00 54 1018.4
20260503060107 65 223 2.0 6.0 0.00 0.00 0.00 53 1018.8
20260503055002 64 206 1.0 4.0 0.00 0.00 0.00 54 1018.5
20260503054902 64 228 1.0 4.0 0.00 0.00 0.00 55 1018.4
20260503054822 64 188 0.0 4.0 0.00 0.00 0.00 55 1018.2
20260503054803 65 183 0.0 4.0 0.00 0.00 0.00 55 1018.2
20260503054703 65 173 0.0 3.0 0.00 0.00 0.00 53 1018.5
20260503054604 65 224 3.0 3.0 0.00 0.00 0.00 54 1018.5
20260503054548 65 192 0.0 1.0 0.00 0.00 0.00 56 1018.5
20260503054532 63 192 0.0 1.0 0.00 0.00 0.00 56 1018.5
20260503054517 63 194 0.0 1.0 0.00 0.00 0.00 56 1018.8
20260503054202 63 195 0.0 1.0 0.00 0.00 0.00 57 1018.4
20260503054101 63 191 0.0 1.0 0.00 0.00 0.00 57 1018.4
20260503054002 63 196 0.0 1.0 0.00 0.00 0.00 56 1018.7
20260503053902 63 196 0.0 1.0 0.00 0.00 0.00 56 1018.7
20260503053822 63 193 0.0 1.0 0.00 0.00 0.00 56 1018.7
20260503053803 63 190 0.0 1.0 0.00 0.00 0.00 56 1018.7
20260503053658 63 188 0.0 1.0 0.00 0.00 0.00 55 1018.4
20260503053610 63 188 0.0 1.0 0.00 0.00 0.00 56 1018.5
20260503053605 63 189 0.0 1.0 0.00 0.00 0.00 56 1018.5
20260503053550 63 189 0.0 1.0 0.00 0.00 0.00 56 1018.4
20260503053534 63 190 0.0 1.0 0.00 0.00 0.00 57 1018.7
20260503053255 64 187 0.0 1.0 0.00 0.00 0.00 56 1018.5
20260503053155 64 195 0.0 1.0 0.00 0.00 0.00 54 1018.8
20260503053055 63 189 0.0 0.0 0.00 0.00 0.00 55 1018.8
20260503052955 63 185 0.0 0.0 0.00 0.00 0.00 55 1018.4
20260503052934 62 184 0.0 0.0 0.00 0.00 0.00 56 1018.5
20260503052919 62 184 0.0 0.0 0.00 0.00 0.00 57 1018.4
20260503052911 62 184 0.0 0.0 0.00 0.00 0.00 57 1018.4
20260503052552 62 181 0.0 0.0 0.00 0.00 0.00 58 1018.5
20260503052444 61 181 0.0 1.0 0.00 0.00 0.00 58 1018.7
20260503052340 60 181 0.0 1.0 0.00 0.00 0.00 59 1018.7
20260503052312 60 180 0.0 1.0 0.00 0.00 0.00 59 1018.3
20260503052239 60 180 0.0 1.0 0.00 0.00 0.00 59 1018.5
20260503052140 59 186 0.0 1.0 0.00 0.00 0.00 60 1018.5
20260503052039 58 186 0.0 1.0 0.00 0.00 0.00 61 1018.3
20260503051941 58 173 0.0 1.0 0.00 0.00 0.00 63 1018.5
20260503051840 58 148 0.0 1.0 0.00 0.00 0.00 62 1018.8
20260503051811 58 160 0.0 1.0 0.00 0.00 0.00 61 1018.8
20260503051758 56 177 0.0 1.0 0.00 0.00 0.00 65 1018.7
20260503051751 58 161 0.0 1.0 0.00 0.00 0.00 62 1018.4
20260503051736 58 165 0.0 1.0 0.00 0.00 0.00 63 1018.5
20260503051720 58 108 0.0 1.0 0.00 0.00 0.00 62 1018.7
20260503051704 58 161 0.0 1.0 0.00 0.00 0.00 61 1018.7
20260503051649 57 176 0.0 1.0 0.00 0.00 0.00 63 1018.8
20260503051635 57 173 0.0 1.0 0.00 0.00 0.00 63 1018.8
20260503051624 57 105 0.0 1.0 0.00 0.00 0.00 63 1018.8
20260503051608 57 173 0.0 1.0 0.00 0.00 0.00 63 1018.4
20260503051552 57 172 0.0 1.0 0.00 0.00 0.00 63 1018.4
20260503051535 57 90 0.0 1.0 0.00 0.00 0.00 63 1018.7
20260503051519 57 162 0.0 1.0 0.00 0.00 0.00 63 1018.4
20260503051505 56 162 0.0 1.0 0.00 0.00 0.00 63 1018.4
20260503051456 56 160 0.0 1.0 0.00 0.00 0.00 63 1018.4
20260503051000 57 161 0.0 1.0 0.00 0.00 0.00 64 1018.5
20260503050511 56 173 0.0 1.0 0.00 0.00 0.00 64 1018.5
20260503050456 56 153 0.0 0.0 0.00 0.00 0.00 64 1018.7
20260503050439 56 170 0.0 0.0 0.00 0.00 0.00 64 1018.7
20260503045946 56 160 0.0 1.0 0.00 0.00 0.00 64 1018.5
20260503045707 55 167 0.0 1.0 0.00 0.00 0.00 65 1018.5
20260503045651 55 160 0.0 1.0 0.00 0.00 0.00 65 1018.4
20260503045359 54 156 0.0 1.0 0.00 0.00 0.00 67 1018.7
20260503045352 55 164 0.0 1.0 0.00 0.00 0.00 66 1018.7
20260503045338 55 162 0.0 1.0 0.00 0.00 0.00 66 1018.7
20260503045327 55 161 0.0 1.0 0.00 0.00 0.00 66 1018.7
20260503045311 54 160 0.0 1.0 0.00 0.00 0.00 66 1018.5
20260503045255 54 152 0.0 1.0 0.00 0.00 0.00 66 1018.7
20260503045239 54 156 0.0 1.0 0.00 0.00 0.00 67 1018.4
20260503044720 54 145 0.0 1.0 0.00 0.00 0.00 67 1018.4
20260503044620 54 150 0.0 1.0 0.00 0.00 0.00 66 1018.5
20260503044520 54 160 0.0 1.0 0.00 0.00 0.00 66 1018.5
20260503044420 54 157 0.0 1.0 0.00 0.00 0.00 66 1018.4
20260503044320 54 165 0.0 0.0 0.00 0.00 0.00 66 1018.5
20260503044304 54 165 0.0 0.0 0.00 0.00 0.00 67 1018.5
20260503044219 54 164 0.0 0.0 0.00 0.00 0.00 68 1018.4
20260503044118 54 165 0.0 0.0 0.00 0.00 0.00 68 1018.3
20260503044054 55 168 0.0 0.0 0.00 0.00 0.00 65 1018.5
20260503044046 54 166 0.0 0.0 0.00 0.00 0.00 67 1018.5
20260503044031 55 167 0.0 0.0 0.00 0.00 0.00 66 1018.8
20260503044013 55 168 0.0 0.0 0.00 0.00 0.00 65 1018.5
20260503043713 55 168 0.0 0.0 0.00 0.00 0.00 66 1018.7
20260503043613 55 168 0.0 0.0 0.00 0.00 0.00 65 1018.4
20260503043549 55 167 0.0 0.0 0.00 0.00 0.00 65 1018.5
20260503043533 54 165 0.0 0.0 0.00 0.00 0.00 66 1018.4
20260503043517 54 163 0.0 0.0 0.00 0.00 0.00 66 1018.4
20260503043505 54 162 0.0 0.0 0.00 0.00 0.00 66 1018.4
20260503043453 54 161 0.0 0.0 0.00 0.00 0.00 66 1018.3
20260503043437 53 162 0.0 0.0 0.00 0.00 0.00 66 1018.5
20260503043202 53 161 0.0 0.0 0.00 0.00 0.00 67 1018.4
20260503042930 53 161 0.0 0.0 0.00 0.00 0.00 67 1018.4
20260503042613 53 162 0.0 1.0 0.00 0.00 0.00 68 1018.5
20260503042545 53 161 0.0 1.0 0.00 0.00 0.00 67 1018.2
20260503042528 53 161 0.0 1.0 0.00 0.00 0.00 67 1018.4
20260503042248 52 161 0.0 1.0 0.00 0.00 0.00 68 1018.3
20260503042204 52 161 0.0 1.0 0.00 0.00 0.00 68 1018.4
20260503042104 52 157 0.0 1.0 0.00 0.00 0.00 68 1018.3
20260503042004 52 158 0.0 1.0 0.00 0.00 0.00 68 1018.5
20260503041903 52 159 0.0 1.0 0.00 0.00 0.00 69 1018.2
20260503041750 52 159 0.0 1.0 0.00 0.00 0.00 70 1018.5
20260503041650 51 156 0.0 1.0 0.00 0.00 0.00 69 1018.4
20260503041550 51 163 0.0 1.0 0.00 0.00 0.00 69 1018.3
20260503041450 51 163 0.0 1.0 0.00 0.00 0.00 69 1018.5
20260503041349 51 163 0.0 1.0 0.00 0.00 0.00 70 1018.2
20260503041250 51 163 0.0 1.0 0.00 0.00 0.00 70 1018.3
20260503041146 51 163 0.0 1.0 0.00 0.00 0.00 70 1018.3
20260503041120 51 164 0.0 1.0 0.00 0.00 0.00 70 1018.0
20260503041105 51 164 0.0 1.0 0.00 0.00 0.00 70 1018.3
20260503040744 51 163 0.0 1.0 0.00 0.00 0.00 70 1018.3
20260503040645 51 167 0.0 1.0 0.00 0.00 0.00 70 1018.1
20260503040544 51 166 0.0 1.0 0.00 0.00 0.00 70 1018.1
20260503040444 50 167 0.0 0.0 0.00 0.00 0.00 71 1018.3
20260503040343 50 168 0.0 0.0 0.00 0.00 0.00 71 1018.2
20260503040244 50 168 0.0 0.0 0.00 0.00 0.00 71 1018.4
20260503040159 50 167 0.0 0.0 0.00 0.00 0.00 71 1018.3
20260503040144 50 167 0.0 0.0 0.00 0.00 0.00 71 1018.2
20260503035820 50 167 0.0 0.0 0.00 0.00 0.00 72 1018.3
20260503035740 50 168 0.0 0.0 0.00 0.00 0.00 72 1018.3
20260503035720 50 168 0.0 0.0 0.00 0.00 0.00 72 1018.2
20260503035618 50 168 0.0 0.0 0.00 0.00 0.00 72 1018.2
20260503035552 50 167 0.0 0.0 0.00 0.00 0.00 72 1018.2
20260503035535 50 168 0.0 0.0 0.00 0.00 0.00 72 1017.9
20260503035235 50 168 0.0 0.0 0.00 0.00 0.00 72 1018.0
20260503035214 49 168 0.0 0.0 0.00 0.00 0.00 72 1018.0
20260503035116 49 168 0.0 0.0 0.00 0.00 0.00 72 1018.3
20260503035015 49 168 0.0 0.0 0.00 0.00 0.00 72 1018.1
20260503034915 49 168 0.0 1.0 0.00 0.00 0.00 72 1018.4
20260503034842 49 168 0.0 1.0 0.00 0.00 0.00 72 1018.2
20260503034820 49 167 0.0 1.0 0.00 0.00 0.00 72 1018.3
20260503034804 49 167 0.0 1.0 0.00 0.00 0.00 72 1018.3
20260503034527 49 166 0.0 1.0 0.00 0.00 0.00 72 1018.0
20260503034230 49 167 0.0 1.0 0.00 0.00 0.00 72 1018.3
20260503034157 49 168 0.0 1.0 0.00 0.00 0.00 72 1018.3
20260503034057 49 168 0.0 1.0 0.00 0.00 0.00 72 1018.2
20260503033957 49 167 0.0 1.0 0.00 0.00 0.00 72 1018.3
20260503033856 49 168 0.0 1.0 0.00 0.00 0.00 72 1018.3
20260503033756 50 168 0.0 1.0 0.00 0.00 0.00 72 1018.3
20260503033741 50 167 0.0 1.0 0.00 0.00 0.00 72 1018.3
20260503033656 50 167 0.0 1.0 0.00 0.00 0.00 72 1018.2
20260503033545 50 168 0.0 1.0 0.00 0.00 0.00 72 1018.4
20260503033518 49 166 0.0 1.0 0.00 0.00 0.00 72 1018.2
20260503033502 49 171 0.0 0.0 0.00 0.00 0.00 72 1018.4
20260503033435 50 171 0.0 0.0 0.00 0.00 0.00 72 1018.4
20260503033203 50 171 0.0 0.0 0.00 0.00 0.00 71 1018.3
20260503032930 50 177 0.0 0.0 0.00 0.00 0.00 72 1018.1
20260503032924 49 171 0.0 0.0 0.00 0.00 0.00 72 1018.2
20260503032920 50 171 0.0 0.0 0.00 0.00 0.00 72 1018.1
20260503032913 49 175 0.0 0.0 0.00 0.00 0.00 72 1017.9
20260503032905 50 171 0.0 0.0 0.00 0.00 0.00 71 1018.2
20260503032848 50 171 0.0 0.0 0.00 0.00 0.00 71 1018.2
20260503032838 50 171 0.0 0.0 0.00 0.00 0.00 71 1018.1
20260503032826 50 171 0.0 0.0 0.00 0.00 0.00 72 1018.3
20260503032811 49 171 0.0 0.0 0.00 0.00 0.00 72 1018.2
20260503032755 49 172 0.0 0.0 0.00 0.00 0.00 72 1018.1
20260503032739 49 172 0.0 0.0 0.00 0.00 0.00 72 1018.1
20260503032250 49 172 0.0 0.0 0.00 0.00 0.00 72 1018.1
20260503032235 49 172 0.0 0.0 0.00 0.00 0.00 72 1018.0
20260503032219 49 172 0.0 0.0 0.00 0.00 0.00 72 1018.0
20260503032203 49 172 0.0 0.0 0.00 0.00 0.00 72 1018.1
20260503031716 50 171 0.0 0.0 0.00 0.00 0.00 72 1018.2
20260503031700 50 171 0.0 0.0 0.00 0.00 0.00 72 1017.9
20260503031436 50 169 0.0 0.0 0.00 0.00 0.00 72 1018.1
20260503031419 49 170 0.0 0.0 0.00 0.00 0.00 72 1018.1
20260503031350 49 171 0.0 0.0 0.00 0.00 0.00 72 1018.0
20260503031338 49 171 0.0 0.0 0.00 0.00 0.00 72 1018.0
20260503031104 49 172 0.0 0.0 0.00 0.00 0.00 72 1018.2
20260503030821 49 174 0.0 0.0 0.00 0.00 0.00 72 1018.1
20260503030753 49 173 0.0 0.0 0.00 0.00 0.00 72 1018.1
20260503030736 49 175 0.0 0.0 0.00 0.00 0.00 72 1018.1
20260503030720 49 175 0.0 0.0 0.00 0.00 0.00 72 1018.0
20260503030705 49 175 0.0 0.0 0.00 0.00 0.00 72 1017.9
20260503030647 49 175 0.0 0.0 0.00 0.00 0.00 72 1017.9
20260503030419 49 176 0.0 0.0 0.00 0.00 0.00 72 1017.8
20260503030405 49 175 0.0 0.0 0.00 0.00 0.00 72 1017.9
20260503025902 50 177 0.0 0.0 0.00 0.00 0.00 72 1018.0
20260503025845 50 177 0.0 0.0 0.00 0.00 0.00 72 1018.0
20260503025830 50 178 0.0 0.0 0.00 0.00 0.00 72 1018.0
20260503025554 50 178 0.0 0.0 0.00 0.00 0.00 72 1017.9
20260503025536 50 177 0.0 0.0 0.00 0.00 0.00 72 1018.1
20260503024957 50 179 0.0 0.0 0.00 0.00 0.00 71 1017.8
20260503024852 50 179 0.0 0.0 0.00 0.00 0.00 72 1017.9
20260503024750 50 180 0.0 0.0 0.00 0.00 0.00 71 1018.0
20260503024649 50 180 0.0 0.0 0.00 0.00 0.00 71 1018.2
20260503024537 50 180 0.0 0.0 0.00 0.00 0.00 72 1018.0
20260503024437 50 180 0.0 0.0 0.00 0.00 0.00 72 1018.2
20260503024338 50 180 0.0 0.0 0.00 0.00 0.00 72 1018.2
20260503024233 50 181 0.0 0.0 0.00 0.00 0.00 71 1018.1
20260503024133 50 181 0.0 0.0 0.00 0.00 0.00 72 1018.1
20260503024109 50 166 0.0 1.0 0.00 0.00 0.00 71 1018.1
20260503024059 50 181 0.0 0.0 0.00 0.00 0.00 72 1018.0
20260503024044 50 181 0.0 0.0 0.00 0.00 0.00 72 1017.9
20260503024028 50 178 0.0 0.0 0.00 0.00 0.00 71 1018.1
20260503023804 50 178 0.0 0.0 0.00 0.00 0.00 71 1018.2
20260503023750 50 178 0.0 0.0 0.00 0.00 0.00 71 1018.2
20260503023742 50 178 0.0 1.0 0.00 0.00 0.00 71 1018.1
20260503023725 50 178 0.0 1.0 0.00 0.00 0.00 71 1018.1
20260503023710 50 177 0.0 1.0 0.00 0.00 0.00 71 1017.9
20260503023654 50 176 0.0 1.0 0.00 0.00 0.00 71 1017.9
20260503023638 50 174 0.0 1.0 0.00 0.00 0.00 71 1018.0
20260503023624 50 172 0.0 1.0 0.00 0.00 0.00 71 1018.0
20260503023614 50 171 0.0 1.0 0.00 0.00 0.00 71 1018.0
20260503023558 50 170 0.0 1.0 0.00 0.00 0.00 71 1018.0
20260503023103 50 166 0.0 1.0 0.00 0.00 0.00 71 1018.1
20260503022530 50 164 0.0 1.0 0.00 0.00 0.00 71 1018.0
20260503022410 50 163 0.0 1.0 0.00 0.00 0.00 71 1018.2
20260503022354 50 160 0.0 1.0 0.00 0.00 0.00 71 1018.2
20260503022338 50 153 0.0 1.0 0.00 0.00 0.00 72 1018.0
20260503022324 50 155 0.0 1.0 0.00 0.00 0.00 72 1018.0
20260503022009 50 159 0.0 1.0 0.00 0.00 0.00 72 1018.0
20260503021934 50 159 0.0 1.0 0.00 0.00 0.00 72 1018.2
20260503021918 50 159 0.0 2.0 0.00 0.00 0.00 71 1018.1
20260503021902 50 158 0.0 2.0 0.00 0.00 0.00 71 1018.2
20260503021848 50 155 0.0 2.0 0.00 0.00 0.00 71 1018.2
20260503021618 50 161 0.0 2.0 0.00 0.00 0.00 71 1018.1
20260503021257 50 164 0.0 3.0 0.00 0.00 0.00 71 1018.2
20260503021157 50 162 0.0 3.0 0.00 0.00 0.00 71 1018.2
20260503021130 50 156 0.0 3.0 0.00 0.00 0.00 71 1018.1
20260503021057 50 152 0.0 3.0 0.00 0.00 0.00 71 1018.1
20260503020956 50 140 0.0 3.0 0.00 0.00 0.00 71 1018.1
20260503020855 50 132 1.0 3.0 0.00 0.00 0.00 71 1018.3
20260503020752 50 114 1.0 3.0 0.00 0.00 0.00 72 1018.0
20260503020649 50 97 1.0 3.0 0.00 0.00 0.00 72 1018.0
20260503020621 50 64 2.0 3.0 0.00 0.00 0.00 72 1018.0
20260503020548 50 100 1.0 3.0 0.00 0.00 0.00 72 1018.0
20260503020450 50 82 2.0 3.0 0.00 0.00 0.00 72 1018.0
20260503020348 50 96 2.0 3.0 0.00 0.00 0.00 72 1018.2
20260503020317 49 70 1.0 2.0 0.00 0.00 0.00 75 1018.2
20260503020311 50 64 2.0 3.0 0.00 0.00 0.00 73 1018.3
20260503020305 50 76 2.0 3.0 0.00 0.00 0.00 72 1018.0
20260503020248 50 66 3.0 3.0 0.00 0.00 0.00 73 1018.1
20260503020233 50 62 2.0 3.0 0.00 0.00 0.00 73 1018.1
20260503020224 50 68 2.0 3.0 0.00 0.00 0.00 73 1018.1
20260503020000 50 67 2.0 3.0 0.00 0.00 0.00 73 1018.0
20260503015943 50 86 2.0 3.0 0.00 0.00 0.00 73 1018.0
20260503015928 50 68 1.0 3.0 0.00 0.00 0.00 73 1018.2
20260503015912 50 67 2.0 3.0 0.00 0.00 0.00 73 1018.2
20260503015645 50 77 1.0 3.0 0.00 0.00 0.00 73 1018.3
20260503015629 50 94 1.0 2.0 0.00 0.00 0.00 73 1018.0
20260503015612 49 68 2.0 2.0 0.00 0.00 0.00 74 1018.1
20260503015336 49 68 1.0 2.0 0.00 0.00 0.00 75 1018.0
20260503015044 49 78 1.0 2.0 0.00 0.00 0.00 75 1018.2
20260503014944 49 104 2.0 2.0 0.00 0.00 0.00 76 1017.9
20260503014844 48 128 1.0 1.0 0.00 0.00 0.00 76 1018.3
20260503014743 48 128 1.0 1.0 0.00 0.00 0.00 76 1018.0
20260503014642 48 133 1.0 1.0 0.00 0.00 0.00 77 1018.2
20260503014616 48 133 1.0 1.0 0.00 0.00 0.00 77 1018.1
20260503014543 48 136 1.0 1.0 0.00 0.00 0.00 77 1018.1
20260503014443 48 137 0.0 1.0 0.00 0.00 0.00 78 1018.4
20260503014343 48 148 1.0 1.0 0.00 0.00 0.00 78 1018.2
20260503014234 48 168 0.0 1.0 0.00 0.00 0.00 78 1018.2
20260503014132 48 163 0.0 1.0 0.00 0.00 0.00 78 1018.3
20260503014116 48 155 0.0 1.0 0.00 0.00 0.00 78 1018.3
20260503014031 48 150 1.0 1.0 0.00 0.00 0.00 78 1018.3
20260503014004 48 167 0.0 1.0 0.00 0.00 0.00 77 1018.3
20260503013948 48 164 0.0 1.0 0.00 0.00 0.00 77 1018.1
20260503013610 49 175 0.0 1.0 0.00 0.00 0.00 76 1018.3
20260503013526 49 174 0.0 1.0 0.00 0.00 0.00 76 1018.1
20260503013427 49 171 0.0 1.0 0.00 0.00 0.00 76 1018.3
20260503013329 49 171 0.0 1.0 0.00 0.00 0.00 75 1018.3
20260503013313 49 170 0.0 1.0 0.00 0.00 0.00 76 1018.2
20260503013257 49 169 0.0 1.0 0.00 0.00 0.00 75 1018.2
20260503013242 49 167 0.0 1.0 0.00 0.00 0.00 75 1018.2
20260503012925 49 154 1.0 1.0 0.00 0.00 0.00 76 1018.3
20260503012822 50 172 0.0 1.0 0.00 0.00 0.00 74 1018.1
20260503012721 51 172 0.0 1.0 0.00 0.00 0.00 73 1018.1
20260503012605 51 172 0.0 1.0 0.00 0.00 0.00 72 1018.4
20260503012521 51 170 0.0 1.0 0.00 0.00 0.00 71 1018.3
20260503012421 51 165 0.0 1.0 0.00 0.00 0.00 71 1018.5
20260503012321 51 163 0.0 1.0 0.00 0.00 0.00 70 1017.9
20260503012221 51 160 0.0 1.0 0.00 0.00 0.00 70 1018.1
20260503012119 51 159 0.0 1.0 0.00 0.00 0.00 70 1018.4
20260503012104 51 158 0.0 1.0 0.00 0.00 0.00 70 1018.4
20260503012019 51 158 0.0 1.0 0.00 0.00 0.00 70 1018.4
20260503011919 51 157 0.0 1.0 0.00 0.00 0.00 70 1018.3
20260503011843 51 160 0.0 1.0 0.00 0.00 0.00 70 1018.1
20260503011827 51 159 0.0 1.0 0.00 0.00 0.00 70 1018.4
20260503011601 51 158 0.0 1.0 0.00 0.00 0.00 70 1018.4
20260503011503 51 158 0.0 1.0 0.00 0.00 0.00 70 1018.5
20260503011401 51 161 0.0 1.0 0.00 0.00 0.00 70 1018.4
20260503011256 51 161 0.0 1.0 0.00 0.00 0.00 70 1018.4
20260503011156 51 162 0.0 1.0 0.00 0.00 0.00 70 1018.3
20260503011058 51 161 0.0 1.0 0.00 0.00 0.00 70 1018.3
20260503010956 51 161 0.0 1.0 0.00 0.00 0.00 70 1018.3
20260503010858 51 160 0.0 1.0 0.00 0.00 0.00 70 1018.4
20260503010756 51 159 0.0 1.0 0.00 0.00 0.00 70 1018.4
20260503010738 51 157 0.0 1.0 0.00 0.00 0.00 70 1018.2
20260503010715 52 153 0.0 1.0 0.00 0.00 0.00 70 1018.4
20260503010431 52 146 1.0 2.0 0.00 0.00 0.00 70 1018.3
20260503010415 52 149 0.0 2.0 0.00 0.00 0.00 70 1018.3
20260503010109 52 145 1.0 2.0 0.00 0.00 0.00 70 1018.3
20260503005955 52 133 0.0 2.0 0.00 0.00 0.00 70 1018.1
20260503005855 52 140 1.0 2.0 0.00 0.00 0.00 70 1018.3
20260503005753 52 148 0.0 2.0 0.00 0.00 0.00 70 1018.1
20260503005652 52 135 1.0 2.0 0.00 0.00 0.00 70 1018.3
20260503005549 52 152 0.0 2.0 0.00 0.00 0.00 70 1018.4
20260503005445 52 129 1.0 2.0 0.00 0.00 0.00 70 1018.5
20260503005344 52 135 1.0 2.0 0.00 0.00 0.00 70 1018.5
20260503005326 52 154 0.0 2.0 0.00 0.00 0.00 69 1018.2
20260503005310 52 154 1.0 1.0 0.00 0.00 0.00 70 1018.2
20260503005042 52 170 0.0 0.0 0.00 0.00 0.00 70 1018.4
20260503004735 52 150 1.0 1.0 0.00 0.00 0.00 70 1018.5
20260503004636 52 170 0.0 1.0 0.00 0.00 0.00 70 1018.4
20260503004535 52 174 0.0 1.0 0.00 0.00 0.00 70 1018.7
20260503004501 52 173 0.0 1.0 0.00 0.00 0.00 70 1018.7
20260503004430 51 174 0.0 1.0 0.00 0.00 0.00 70 1018.5
20260503004330 51 175 0.0 1.0 0.00 0.00 0.00 70 1018.4
20260503004229 51 177 0.0 0.0 0.00 0.00 0.00 70 1018.2
20260503004130 51 175 0.0 0.0 0.00 0.00 0.00 70 1018.5
20260503004029 51 174 0.0 0.0 0.00 0.00 0.00 70 1018.5
20260503004012 51 174 0.0 0.0 0.00 0.00 0.00 71 1018.5
20260503004005 51 173 0.0 0.0 0.00 0.00 0.00 71 1018.3
20260503003949 51 172 0.0 0.0 0.00 0.00 0.00 71 1018.5
20260503003629 50 172 0.0 0.0 0.00 0.00 0.00 72 1018.5
20260503003529 50 171 0.0 1.0 0.00 0.00 0.00 72 1018.2
20260503003449 50 171 0.0 1.0 0.00 0.00 0.00 73 1018.2
20260503003428 50 171 0.0 1.0 0.00 0.00 0.00 73 1018.4
20260503003328 50 171 0.0 1.0 0.00 0.00 0.00 73 1018.7
20260503003228 50 170 0.0 1.0 0.00 0.00 0.00 74 1018.4
20260503003128 50 171 0.0 1.0 0.00 0.00 0.00 74 1018.3
20260503003028 51 172 0.0 1.0 0.00 0.00 0.00 73 1018.4
20260503002948 51 172 0.0 1.0 0.00 0.00 0.00 72 1018.4
20260503002919 51 173 0.0 1.0 0.00 0.00 0.00 72 1018.5
20260503002817 51 172 0.0 1.0 0.00 0.00 0.00 71 1018.5
20260503002713 51 171 0.0 1.0 0.00 0.00 0.00 70 1018.4
20260503002647 51 171 1.0 1.0 0.00 0.00 0.00 70 1018.4
20260503002631 51 175 0.0 0.0 0.00 0.00 0.00 71 1018.7
20260503002619 51 175 0.0 0.0 0.00 0.00 0.00 71 1018.7
20260503002306 51 175 0.0 0.0 0.00 0.00 0.00 71 1018.5
20260503002207 51 174 0.0 0.0 0.00 0.00 0.00 72 1018.4
20260503002106 51 174 0.0 0.0 0.00 0.00 0.00 72 1018.7
20260503002005 51 174 0.0 0.0 0.00 0.00 0.00 72 1018.5
20260503001930 50 174 0.0 0.0 0.00 0.00 0.00 72 1018.5
20260503001905 50 174 0.0 0.0 0.00 0.00 0.00 73 1018.8
20260503001806 50 174 0.0 0.0 0.00 0.00 0.00 73 1018.3
20260503001705 50 174 0.0 0.0 0.00 0.00 0.00 73 1018.4
20260503001606 49 174 0.0 0.0 0.00 0.00 0.00 74 1018.5
20260503001533 49 174 0.0 0.0 0.00 0.00 0.00 75 1018.5
20260503001516 49 173 0.0 0.0 0.00 0.00 0.00 75 1018.5
20260503001506 49 173 0.0 0.0 0.00 0.00 0.00 75 1018.5
20260503001143 50 165 0.0 0.0 0.00 0.00 0.00 75 1018.5
20260503001124 50 164 0.0 0.0 0.00 0.00 0.00 74 1018.3
20260503001108 51 163 0.0 1.0 0.00 0.00 0.00 73 1018.3
20260503001057 51 163 0.0 1.0 0.00 0.00 0.00 73 1018.4
20260503000742 52 163 0.0 1.0 0.00 0.00 0.00 72 1018.7
20260503000644 52 163 0.0 1.0 0.00 0.00 0.00 71 1018.4
20260503000544 53 158 0.0 1.0 0.00 0.00 0.00 70 1018.3
20260503000442 53 157 0.0 1.0 0.00 0.00 0.00 68 1018.4
20260503000422 53 157 0.0 1.0 0.00 0.00 0.00 68 1018.5
20260503000415 53 157 0.0 1.0 0.00 0.00 0.00 67 1018.3
20260503000355 53 153 0.0 1.0 0.00 0.00 0.00 67 1018.4
20260503000034 53 152 0.0 1.0 0.00 0.00 0.00 67 1018.7
20260503000005 51 147 1.0 2.0 0.00 0.00 0.00 72 1018.8
20260503000000 53 158 0.0 2.0 0.00 0.00 0.00 69 1018.9
20260502235953 53 155 0.0 1.0 0.00 0.00 0.00 67 1018.7
20260502235939 53 155 0.0 1.0 0.00 0.00 0.00 66 1018.7
20260502235930 54 154 0.0 1.0 0.00 0.00 0.00 66 1018.8
20260502235914 54 154 0.0 1.0 0.00 0.00 0.00 66 1018.5
20260502235858 54 154 0.0 1.0 0.00 0.00 0.00 66 1018.7
20260502235842 54 157 0.0 1.0 0.00 0.00 0.00 66 1018.3
20260502235826 54 156 0.0 1.0 0.00 0.00 0.00 66 1018.7
20260502235813 54 157 0.0 1.0 0.00 0.00 0.00 66 1018.7
20260502235541 54 153 0.0 1.0 0.00 0.00 0.00 66 1018.5
20260502235525 53 153 0.0 1.0 0.00 0.00 0.00 66 1018.9
20260502235510 53 150 0.0 1.0 0.00 0.00 0.00 66 1018.7
20260502235453 53 164 0.0 1.0 0.00 0.00 0.00 67 1018.8
20260502235441 53 167 0.0 1.0 0.00 0.00 0.00 67 1018.8
20260502235212 53 169 0.0 1.0 0.00 0.00 0.00 67 1018.5
20260502235156 53 168 0.0 1.0 0.00 0.00 0.00 67 1018.8
20260502234920 52 170 0.0 1.0 0.00 0.00 0.00 68 1018.7
20260502234859 52 168 0.0 1.0 0.00 0.00 0.00 68 1018.7
20260502234841 52 169 0.0 1.0 0.00 0.00 0.00 69 1018.9
20260502234825 52 169 0.0 1.0 0.00 0.00 0.00 70 1018.7
20260502234809 51 161 0.0 1.0 0.00 0.00 0.00 70 1018.8
20260502234322 51 167 0.0 2.0 0.00 0.00 0.00 73 1018.7
20260502234307 51 163 0.0 2.0 0.00 0.00 0.00 72 1018.9
20260502233309 53 157 0.0 2.0 0.00 0.00 0.00 68 1018.8
20260502233245 54 157 0.0 2.0 0.00 0.00 0.00 67 1018.8
20260502233230 54 152 0.0 2.0 0.00 0.00 0.00 66 1018.7
20260502233215 54 146 0.0 2.0 0.00 0.00 0.00 65 1018.8
20260502233159 54 159 0.0 1.0 0.00 0.00 0.00 66 1018.7
20260502233146 54 160 0.0 1.0 0.00 0.00 0.00 66 1018.7
20260502232608 54 162 0.0 1.0 0.00 0.00 0.00 65 1018.9
20260502232507 54 163 0.0 1.0 0.00 0.00 0.00 64 1018.7
20260502232439 55 167 0.0 0.0 0.00 0.00 0.00 64 1018.8
20260502232425 55 166 0.0 1.0 0.00 0.00 0.00 64 1018.8
20260502232414 55 166 0.0 1.0 0.00 0.00 0.00 64 1018.8
20260502232358 55 165 0.0 1.0 0.00 0.00 0.00 64 1018.9
20260502232123 55 165 0.0 1.0 0.00 0.00 0.00 64 1018.8
20260502232108 55 164 0.0 1.0 0.00 0.00 0.00 64 1018.7
20260502232056 55 164 0.0 1.0 0.00 0.00 0.00 64 1019.0
20260502232046 55 163 0.0 1.0 0.00 0.00 0.00 64 1019.0
20260502231812 54 161 0.0 1.0 0.00 0.00 0.00 64 1018.8
20260502231539 54 157 0.0 1.0 0.00 0.00 0.00 65 1018.7
20260502231228 54 162 0.0 1.0 0.00 0.00 0.00 65 1018.9
20260502231126 54 163 0.0 1.0 0.00 0.00 0.00 65 1018.8
20260502231024 54 163 0.0 1.0 0.00 0.00 0.00 65 1018.8
20260502230925 54 163 0.0 1.0 0.00 0.00 0.00 65 1018.8
20260502230832 54 163 0.0 1.0 0.00 0.00 0.00 65 1019.0
20260502230824 54 162 0.0 1.0 0.00 0.00 0.00 65 1019.0
20260502230722 54 163 0.0 1.0 0.00 0.00 0.00 65 1018.7
20260502230657 54 164 0.0 1.0 0.00 0.00 0.00 66 1019.1
20260502230641 54 161 0.0 1.0 0.00 0.00 0.00 66 1018.9
20260502230402 55 159 0.0 1.0 0.00 0.00 0.00 64 1019.0
20260502230347 54 160 0.0 1.0 0.00 0.00 0.00 66 1018.9
20260502230330 54 164 0.0 1.0 0.00 0.00 0.00 66 1018.8
20260502230314 54 163 0.0 1.0 0.00 0.00 0.00 66 1019.0
20260502230258 54 160 0.0 1.0 0.00 0.00 0.00 65 1018.8
20260502230242 55 160 0.0 1.0 0.00 0.00 0.00 65 1019.0
20260502225711 55 158 0.0 1.0 0.00 0.00 0.00 63 1018.8
20260502225611 55 157 0.0 1.0 0.00 0.00 0.00 63 1018.9
20260502225511 55 153 0.0 1.0 0.00 0.00 0.00 63 1018.9
20260502225411 55 156 0.0 0.0 0.00 0.00 0.00 63 1018.9
20260502225311 55 160 0.0 0.0 0.00 0.00 0.00 63 1019.1
20260502225212 55 157 0.0 0.0 0.00 0.00 0.00 63 1018.9
20260502225112 55 163 0.0 0.0 0.00 0.00 0.00 63 1019.0
20260502225012 55 165 0.0 1.0 0.00 0.00 0.00 62 1019.0
20260502224911 55 166 0.0 1.0 0.00 0.00 0.00 62 1019.1
20260502224850 55 167 0.0 1.0 0.00 0.00 0.00 62 1019.0
20260502224835 55 166 0.0 1.0 0.00 0.00 0.00 62 1019.0
20260502224603 55 170 0.0 2.0 0.00 0.00 0.00 62 1019.1
20260502224556 55 167 0.0 1.0 0.00 0.00 0.00 62 1019.1
20260502224540 55 170 0.0 1.0 0.00 0.00 0.00 63 1019.1
20260502224311 55 170 0.0 2.0 0.00 0.00 0.00 62 1019.1
20260502224249 56 170 0.0 2.0 0.00 0.00 0.00 62 1019.3
20260502224232 56 172 0.0 2.0 0.00 0.00 0.00 62 1019.2
20260502223910 56 155 0.0 2.0 0.00 0.00 0.00 61 1019.0
20260502223854 56 132 0.0 3.0 0.00 0.00 0.00 61 1019.1
20260502223838 56 152 0.0 2.0 0.00 0.00 0.00 61 1019.3
20260502223823 56 143 0.0 2.0 0.00 0.00 0.00 61 1019.2
20260502223806 56 147 0.0 2.0 0.00 0.00 0.00 61 1019.1
20260502223532 56 115 1.0 3.0 0.00 0.00 0.00 61 1019.0
20260502223252 56 114 0.0 3.0 0.00 0.00 0.00 61 1019.1
20260502223154 56 102 1.0 3.0 0.00 0.00 0.00 61 1019.2
20260502223052 56 89 1.0 3.0 0.00 0.00 0.00 62 1019.0
20260502223035 56 91 1.0 3.0 0.00 0.00 0.00 62 1019.2
20260502223019 56 101 1.0 3.0 0.00 0.00 0.00 62 1019.0
20260502223005 56 101 0.0 3.0 0.00 0.00 0.00 62 1018.9
20260502222724 56 66 2.0 3.0 0.00 0.00 0.00 62 1019.2
20260502222709 56 85 1.0 3.0 0.00 0.00 0.00 61 1019.2